N3WPH Weather Reports


time (UTC)temp
C
wind
direction
speed
KPH
gust
KPH
rain 1hr
cm
rain 24hr
cm
rain mn
cm
humidity
%
barometer
mb
20260504110526 5 36 0.0 0.0 0.00 0.00 0.00 80 1012.8
20260504100443 5 243 0.0 1.6 0.00 0.00 0.00 75 1012.5
20260504081835 8 274 1.6 3.2 0.00 0.00 0.00 56 1012.7
20260504081332 8 154 1.6 1.6 0.00 0.00 0.00 56 1012.8
20260504080827 8 224 1.6 1.6 0.00 0.00 0.00 56 1012.8
20260504080325 8 87 0.0 1.6 0.00 0.00 0.00 56 1012.8
20260504070252 9 183 3.2 3.2 0.00 0.00 0.00 54 1012.6
20260504060213 8 159 3.2 3.2 0.00 0.00 0.00 56 1012.5
20260504050640 8 214 3.2 3.2 0.00 0.00 0.00 55 1012.7
20260504050138 8 227 1.6 1.6 0.00 0.00 0.00 56 1012.6
20260504045635 8 158 1.6 3.2 0.00 0.00 0.00 56 1012.6
20260504045134 8 176 1.6 3.2 0.00 0.00 0.00 56 1012.7
20260504044633 8 174 3.2 3.2 0.00 0.00 0.00 57 1012.6
20260504044129 9 152 3.2 3.2 0.00 0.00 0.00 55 1012.6
20260504043626 9 237 3.2 3.2 0.00 0.00 0.00 53 1012.6
20260504043124 9 125 6.4 11.3 0.00 0.00 0.00 53 1012.4
20260504042621 9 172 4.8 4.8 0.00 0.00 0.00 53 1012.6
20260504042117 9 168 3.2 3.2 0.00 0.00 0.00 54 1012.3
20260504041613 9 235 4.8 4.8 0.00 0.00 0.00 54 1012.2
20260504041110 9 179 1.6 3.2 0.00 0.00 0.00 54 1012.4
20260504040607 9 144 1.6 3.2 0.00 0.00 0.00 54 1012.4
20260504040103 9 238 3.2 3.2 0.00 0.00 0.00 53 1012.2
20260504035600 9 250 0.0 1.6 0.00 0.00 0.00 53 1012.4
20260504035056 9 182 3.2 3.2 0.00 0.00 0.00 54 1012.2
20260504034555 10 170 8.0 11.3 0.00 0.00 0.00 52 1012.2
20260504034051 10 230 4.8 8.0 0.00 0.00 0.00 51 1012.1
20260504033549 10 28 1.6 1.6 0.00 0.00 0.00 52 1012.1
20260504033046 10 164 3.2 3.2 0.00 0.00 0.00 51 1012.1
20260504032543 10 309 0.0 1.6 0.00 0.00 0.00 51 1012.1
20260504032040 10 231 3.2 3.2 0.00 0.00 0.00 51 1011.9
20260504031537 10 62 0.0 0.0 0.00 0.00 0.00 50 1011.9
20260504031033 10 232 1.6 3.2 0.00 0.00 0.00 50 1012.2
20260504030531 10 224 4.8 4.8 0.00 0.00 0.00 50 1012.2
20260504030027 10 218 1.6 4.8 0.00 0.00 0.00 51 1012.2
20260504025524 10 279 3.2 4.8 0.00 0.00 0.00 50 1012.2
20260504025020 10 176 1.6 1.6 0.00 0.00 0.00 50 1012.3
20260504024518 10 180 3.2 4.8 0.00 0.00 0.00 50 1012.1
20260504024015 10 173 1.6 1.6 0.00 0.00 0.00 50 1012.2
20260504023511 10 185 1.6 1.6 0.00 0.00 0.00 50 1012.3
20260504023007 10 152 4.8 4.8 0.00 0.00 0.00 51 1012.2
20260504022503 10 242 3.2 3.2 0.00 0.00 0.00 50 1012.1
20260504022000 10 208 3.2 3.2 0.00 0.00 0.00 48 1012.2
20260504021457 10 161 3.2 3.2 0.00 0.00 0.00 49 1012.1
20260504020954 10 156 3.2 4.8 0.00 0.00 0.00 49 1012.1
20260504020450 10 146 1.6 1.6 0.00 0.00 0.00 49 1012.2
20260504015947 10 273 3.2 3.2 0.00 0.00 0.00 48 1012.3
20260504015443 10 221 1.6 3.2 0.00 0.00 0.00 49 1012.1
20260504014939 10 200 3.2 3.2 0.00 0.00 0.00 48 1012.1
20260504014436 10 117 1.6 1.6 0.00 0.00 0.00 47 1012.1
20260504013933 10 228 6.4 8.0 0.00 0.00 0.00 46 1011.9
20260504013431 10 102 0.0 1.6 0.00 0.00 0.00 49 1011.7
20260504012927 11 153 1.6 1.6 0.00 0.00 0.00 48 1011.6
20260504012425 10 178 1.6 3.2 0.00 0.00 0.00 47 1011.7
20260504011923 10 164 4.8 4.8 0.00 0.00 0.00 46 1011.9
20260504011419 10 155 4.8 4.8 0.00 0.00 0.00 47 1011.6
20260504010915 11 238 0.0 0.0 0.00 0.00 0.00 47 1011.4
20260504010411 11 76 0.0 1.6 0.00 0.00 0.00 45 1011.4
20260504005908 11 207 3.2 4.8 0.00 0.00 0.00 44 1011.4
20260504005404 11 190 3.2 4.8 0.00 0.00 0.00 43 1011.5
20260504004903 11 183 0.0 3.2 0.00 0.00 0.00 41 1011.7
20260504004400 11 119 4.8 4.8 0.00 0.00 0.00 42 1011.6
20260504003856 11 305 1.6 3.2 0.00 0.00 0.00 41 1011.3
20260504003353 12 149 1.6 3.2 0.00 0.00 0.00 42 1011.6
20260504002849 12 41 1.6 1.6 0.00 0.00 0.00 42 1011.3
20260504002346 12 313 1.6 1.6 0.00 0.00 0.00 41 1011.3
20260504001844 12 163 3.2 3.2 0.00 0.00 0.00 40 1011.4
20260504001341 12 23 0.0 1.6 0.00 0.00 0.00 41 1011.1
20260504000837 12 343 3.2 3.2 0.00 0.00 0.00 41 1011.1
20260504000335 12 170 1.6 3.2 0.00 0.00 0.00 40 1011.1
20260503235832 12 138 1.6 1.6 0.00 0.00 0.00 40 1011.2
20260503235330 12 171 3.2 4.8 0.00 0.00 0.00 39 1011.2
20260503234827 12 231 3.2 4.8 0.00 0.00 0.00 39 1011.1
20260503234325 12 40 1.6 1.6 0.00 0.00 0.00 40 1011.0
20260503233822 12 44 0.0 1.6 0.00 0.00 0.00 40 1010.9
20260503233318 13 293 1.6 1.6 0.00 0.00 0.00 40 1010.9
20260503232815 12 205 3.2 3.2 0.00 0.00 0.00 40 1010.8
20260503232312 12 191 0.0 1.6 0.00 0.00 0.00 41 1010.7
20260503231810 13 150 1.6 3.2 0.00 0.00 0.00 39 1010.9
20260503231307 13 244 3.2 4.8 0.00 0.00 0.00 40 1010.8
20260503230803 13 62 1.6 1.6 0.00 0.00 0.00 40 1010.7
20260503230300 13 335 4.8 4.8 0.00 0.00 0.00 40 1010.6
20260503225757 13 34 0.0 0.0 0.00 0.00 0.00 39 1010.8
20260503225253 13 55 1.6 3.2 0.00 0.00 0.00 41 1010.8
20260503224750 13 28 0.0 0.0 0.00 0.00 0.00 43 1010.9
20260503224247 13 34 0.0 0.0 0.00 0.00 0.00 41 1010.7
20260503223745 13 18 3.2 3.2 0.00 0.00 0.00 40 1010.7
20260503223242 13 350 0.0 1.6 0.00 0.00 0.00 41 1010.7
20260503222738 13 293 4.8 9.7 0.00 0.00 0.00 38 1010.7
20260503222236 13 29 1.6 1.6 0.00 0.00 0.00 39 1010.8
20260503221734 13 95 1.6 3.2 0.00 0.00 0.00 36 1010.7
20260503221232 14 17 0.0 0.0 0.00 0.00 0.00 39 1010.8
20260503220728 14 13 0.0 1.6 0.00 0.00 0.00 38 1010.9
20260503220225 14 359 0.0 1.6 0.00 0.00 0.00 39 1010.7
20260503215722 14 345 0.0 0.0 0.00 0.00 0.00 41 1010.8
20260503215219 14 297 3.2 3.2 0.00 0.00 0.00 38 1010.7
20260503214717 13 323 3.2 4.8 0.00 0.00 0.00 38 1011.0
20260503214213 13 330 1.6 3.2 0.00 0.00 0.00 41 1010.9
20260503213712 14 1 1.6 3.2 0.00 0.00 0.00 40 1010.8
20260503213208 14 37 0.0 0.0 0.00 0.00 0.00 40 1010.7
20260503212705 14 45 1.6 3.2 0.00 0.00 0.00 39 1010.7
20260503212203 13 344 1.6 1.6 0.00 0.00 0.00 38 1010.4
20260503211700 13 318 1.6 3.2 0.00 0.00 0.00 36 1010.5
20260503211156 14 11 0.0 0.0 0.00 0.00 0.00 40 1010.4
20260503210652 13 16 1.6 1.6 0.00 0.00 0.00 36 1010.6
20260503210149 13 357 3.2 3.2 0.00 0.00 0.00 36 1010.6
20260503205644 13 314 6.4 9.7 0.00 0.00 0.00 38 1010.4
20260503205141 13 39 1.6 3.2 0.00 0.00 0.00 37 1010.4
20260503204638 13 29 0.0 1.6 0.00 0.00 0.00 38 1010.6
20260503204135 13 301 6.4 8.0 0.00 0.00 0.00 35 1010.6
20260503203632 13 349 4.8 8.0 0.00 0.00 0.00 37 1010.5
20260503203130 14 66 3.2 3.2 0.00 0.00 0.00 38 1010.4
20260503202627 14 337 1.6 1.6 0.00 0.00 0.00 38 1010.5
20260503202125 14 29 1.6 1.6 0.00 0.00 0.00 34 1010.4
20260503201623 14 57 1.6 1.6 0.00 0.00 0.00 35 1010.5
20260503201120 15 344 1.6 3.2 0.00 0.00 0.00 36 1010.7
20260503200616 13 15 1.6 3.2 0.00 0.00 0.00 36 1010.7
20260503200113 13 347 1.6 3.2 0.00 0.00 0.00 35 1011.0
20260503195610 13 1 3.2 3.2 0.00 0.00 0.00 33 1010.7
20260503195106 14 28 3.2 4.8 0.00 0.00 0.00 37 1010.9
20260503194604 15 144 3.2 3.2 0.00 0.00 0.00 34 1010.9
20260503194058 14 328 4.8 4.8 0.00 0.00 0.00 37 1011.0
20260503193555 13 329 8.0 11.3 0.00 0.00 0.00 35 1011.0
20260503193050 13 13 4.8 8.0 0.00 0.00 0.00 36 1011.1
20260503192547 14 38 4.8 4.8 0.00 0.00 0.00 39 1011.1
20260503192043 13 12 1.6 3.2 0.00 0.00 0.00 35 1011.2
20260503191540 14 338 3.2 4.8 0.00 0.00 0.00 40 1011.2
20260503191037 15 337 3.2 3.2 0.00 0.00 0.00 40 1011.3
20260503190533 14 328 3.2 3.2 0.00 0.00 0.00 38 1011.5
20260503190030 13 317 3.2 3.2 0.00 0.00 0.00 40 1011.7
20260503185526 12 277 1.6 3.2 0.00 0.00 0.00 42 1011.5
20260503185021 12 348 1.6 3.2 0.00 0.00 0.00 43 1011.5
20260503184518 12 18 1.6 1.6 0.00 0.00 0.00 38 1011.6
20260503184014 14 3 1.6 1.6 0.00 0.00 0.00 39 1011.8
20260503183511 13 41 0.0 1.6 0.00 0.00 0.00 38 1011.9
20260503183008 14 327 3.2 3.2 0.00 0.00 0.00 39 1012.1
20260503182507 13 343 1.6 1.6 0.00 0.00 0.00 40 1012.1
20260503182005 12 348 1.6 3.2 0.00 0.00 0.00 45 1012.2
20260503181501 13 79 3.2 3.2 0.00 0.00 0.00 43 1012.1
20260503180956 12 38 3.2 3.2 0.00 0.00 0.00 41 1011.9
20260503180455 12 52 3.2 3.2 0.00 0.00 0.00 47 1012.2
20260503175951 12 356 3.2 4.8 0.00 0.00 0.00 42 1012.4
20260503175449 12 269 11.3 25.7 0.00 0.00 0.00 42 1012.5
20260503174945 11 345 1.6 3.2 0.00 0.00 0.00 43 1012.4
20260503174443 11 42 3.2 3.2 0.00 0.00 0.00 46 1012.6
20260503173938 10 341 1.6 3.2 0.00 0.00 0.00 45 1012.6
20260503173434 11 27 4.8 9.7 0.00 0.00 0.00 43 1012.7
20260503172931 11 14 3.2 4.8 0.00 0.00 0.00 43 1012.8
20260503172429 11 10 6.4 8.0 0.00 0.00 0.00 39 1012.9
20260503171925 11 67 4.8 9.7 0.00 0.00 0.00 40 1012.9
20260503171422 11 24 1.6 1.6 0.00 0.00 0.00 42 1012.9
20260503170919 10 6 1.6 3.2 0.00 0.00 0.00 46 1013.1
20260503170415 11 346 4.8 4.8 0.00 0.00 0.00 41 1013.1
20260503150808 8 303 3.2 4.8 0.00 0.00 0.00 47 1013.6
20260503150303 10 340 1.6 1.6 0.00 0.00 0.00 45 1013.6
20260503140228 7 2 0.0 0.0 0.00 0.00 0.00 57 1013.6
20260503131158 6 21 3.2 3.2 0.00 0.00 0.00 64 1013.8
20260503130655 6 331 4.8 8.0 0.00 0.00 0.00 62 1013.8
20260503130152 6 26 6.4 8.0 0.00 0.00 0.00 65 1013.7